Location: Drocourt
(49.0571°N, 1.7669°E)
Time: 15:43:21
(UTC+00:00)

Vanguard 2 Rocket - Pass Details

Date: 13 April 2024
Orbit: 556 x 3304 km, 32.9° (Epoch: 22 May)

Event Time Altitude Azimuth Distance (km) Brightness Sun altitude
Exits shadow 03:58:58 - 262° (W) 5,997 10.5 -10.9°
Reaches altitude 10° 03:59:58 10° 261° (W) 5,776 10.4 -10.7°
Maximum altitude 04:13:05 30° 209° (SSW) 3,400 9.4 -8.8°
Drops below altitude 10° 04:21:57 10° 153° (SSE) 3,839 10.1 -7.5°
Sets 04:24:59 0° 142° (SE) 4,470 10.6 -7.0°
